CUTE-1.7+APD II (CO-65)

Last updated on Thu Nov 21 2024 00:03:02 GMT+0000 (Coordinated Universal Time)

1 32785U 08021C 24325.48946090 .00008298 00000+0 66415-3 0 9993 2 32785 97.7724 290.0454 0011471 167.1634 192.9883 15.00385290898883
UTC large
Height (km)
Speed (km/s)
/
Latitude / Longitude
Inclination (degrees)
Orbital Period (minutes)
Azimuth
Elevation
Range (km)
Doppler Factor

Next 0 passes for location: London (51.5072 / 0.1276)

Sorry there are no passes over London.